Torna al catalogo

STARLINK-35593

AttivoComunicazioniVLEO
NORAD 66107·PAYLOAD·🇺🇸 United States

Lanciato Oct 19, 2025 da Vandenberg Space Force Base

Loading…

Prossimi Passaggi (prossime 24 ore)

TLE

AggiornatoSource: CelesTrak SupGP

Epoca: Sep 14, 2026, 20:44 UTC

1 66107C 25236X   26257.86437500 -.00002967  00000+0 -87710-4 0  2572
2 66107  53.1586 301.9372 0001249  79.9251 282.7898 15.34377492    14

Traccia STARLINK-35593 in tempo reale con AllMySat

Download on the App Store